カタログに戻る

SL-8 DEB

運用中LEO
NORAD 21168·DEBRIS·🇷🇺 Russia

打ち上げ Feb 12, 1991 から Plesetsk Cosmodrome

Loading…

次のパス (今後24時間)

TLE

最新Source: Space-Track

元期: Sep 14, 2026, 02:59 UTC

1 21168U 91009AF  26257.12436427 -.00000031  00000-0 -13205-3 0  9998
2 21168  73.8970  47.1632 0198478  58.3443  57.3390 12.27806220592093

AllMySatでSL-8 DEBをリアルタイム追跡

Download on the App Store